Hourly Weather Russkoe Ursaevo

Today, 15 April, Thursday

Time Temperature Precipitation Wind Pressure Humidity
00:00 +8°C° 0 mm 2 mps 757 mmHg 79%
01:00 +8°C° 0 mm 2 mps 757 mmHg 79%
02:00 +8°C° 0 mm 2 mps 757 mmHg 78%
03:00 +7°C° 0 mm 2 mps 757 mmHg 77%
04:00 +7°C° 0 mm 2 mps 757 mmHg 76%
05:00 +8°C° 0 mm 2 mps 757 mmHg 75%
06:00 +8°C° 0 mm 2 mps 757 mmHg 74%
07:00 +8°C° 0 mm 2 mps 756 mmHg 72%
08:00 +10°C° 0 mm 2 mps 756 mmHg 65%
09:00 +13°C° 0 mm 3 mps 756 mmHg 58%
10:00 +15°C° 0 mm 4 mps 756 mmHg 51%
11:00 +17°C° 0 mm 4 mps 755 mmHg 47%
12:00 +17°C° 0 mm 5 mps 755 mmHg 43%
13:00 +19°C° 0 mm 5 mps 755 mmHg 39%
14:00 +20°C° 0 mm 5 mps 755 mmHg 37%
15:00 +20°C° 0 mm 4 mps 754 mmHg 35%
16:00 +20°C° 0 mm 4 mps 754 mmHg 32%
17:00 +19°C° 0 mm 3 mps 754 mmHg 38%
18:00 +17°C° 0 mm 3 mps 753 mmHg 43%
19:00 +16°C° 0 mm 2 mps 753 mmHg 48%
20:00 +15°C° 0 mm 2 mps 753 mmHg 51%
21:00 +14°C° 0 mm 2 mps 753 mmHg 54%
22:00 +13°C° 0 mm 2 mps 753 mmHg 58%
23:00 +12°C° 0 mm 2 mps 753 mmHg 59%

Tomorrow, 16 April, Friday

Time Temperature Precipitation Wind Pressure Humidity
00:00 +12°C° 0 mm 1 mps 753 mmHg 60%
01:00 +11°C° 0 mm 1 mps 752 mmHg 61%
02:00 +11°C° 0 mm 1 mps 752 mmHg 61%
03:00 +11°C° 0 mm 1 mps 752 mmHg 61%
04:00 +9°C° 0 mm 0 mps 752 mmHg 60%
05:00 +9°C° 0 mm 0 mps 752 mmHg 59%
06:00 +10°C° 0 mm 0 mps 752 mmHg 58%
07:00 +10°C° 0 mm 0 mps 752 mmHg 58%
08:00 +13°C° 0 mm 1 mps 752 mmHg 52%
09:00 +15°C° 0 mm 1 mps 752 mmHg 47%
10:00 +16°C° 0 mm 1 mps 753 mmHg 42%
11:00 +18°C° 0 mm 2 mps 752 mmHg 38%
12:00 +19°C° 0 mm 2 mps 752 mmHg 35%
13:00 +20°C° 0 mm 2 mps 752 mmHg 32%
14:00 +20°C° 0 mm 2 mps 752 mmHg 31%
15:00 +20°C° 0 mm 2 mps 752 mmHg 30%
16:00 +20°C° 0 mm 2 mps 752 mmHg 29%
17:00 +19°C° 0 mm 2 mps 752 mmHg 35%
18:00 +18°C° 0 mm 2 mps 752 mmHg 42%
19:00 +16°C° 0 mm 2 mps 752 mmHg 49%
20:00 +14°C° 0 mm 3 mps 752 mmHg 55%
21:00 +13°C° 0 mm 3 mps 752 mmHg 62%
22:00 +12°C° 0 mm 3 mps 752 mmHg 68%
23:00 +11°C° 0 mm 3 mps 752 mmHg 76%

Day after tomorrow, 17 April, Saturday

Time Temperature Precipitation Wind Pressure Humidity
00:00 +10°C° 0 mm 3 mps 752 mmHg 84%
01:00 +9°C° 0 mm 3 mps 752 mmHg 92%
02:00 +8°C° 0 mm 3 mps 753 mmHg 93%
03:00 +8°C° 0 mm 3 mps 753 mmHg 93%
04:00 +7°C° 0 mm 3 mps 753 mmHg 93%
05:00 +7°C° 0 mm 3 mps 753 mmHg 92%
06:00 +7°C° 0 mm 3 mps 753 mmHg 90%
07:00 +7°C° 0 mm 3 mps 753 mmHg 88%
08:00 +8°C° 0 mm 4 mps 753 mmHg 82%
09:00 +10°C° 0 mm 4 mps 753 mmHg 75%
10:00 +12°C° 0 mm 4 mps 753 mmHg 69%
11:00 +13°C° 0 mm 5 mps 753 mmHg 65%
12:00 +14°C° 0 mm 5 mps 753 mmHg 61%
13:00 +15°C° 0 mm 5 mps 753 mmHg 57%
14:00 +15°C° 0 mm 5 mps 753 mmHg 56%
15:00 +15°C° 0 mm 5 mps 752 mmHg 54%
16:00 +15°C° 0 mm 5 mps 752 mmHg 53%
17:00 +14°C° 0 mm 5 mps 752 mmHg 54%
18:00 +13°C° 0 mm 5 mps 752 mmHg 56%
19:00 +12°C° 0 mm 4 mps 752 mmHg 58%
20:00 +10°C° 0 mm 5 mps 752 mmHg 57%
21:00 +9°C° 0 mm 5 mps 752 mmHg 56%
22:00 +8°C° 0 mm 5 mps 753 mmHg 55%
23:00 +7°C° 0 mm 5 mps 752 mmHg 57%

18 April, Sunday

Time Temperature Precipitation Wind Pressure Humidity
00:00 +6°C° 0 mm 5 mps 752 mmHg 59%
01:00 +5°C° 0 mm 5 mps 752 mmHg 60%
02:00 +5°C° 0 mm 5 mps 752 mmHg 62%
03:00 +3°C° 0 mm 5 mps 752 mmHg 64%
04:00 +3°C° 0 mm 5 mps 752 mmHg 65%
05:00 +3°C° 0 mm 5 mps 752 mmHg 65%
06:00 +3°C° 0 mm 5 mps 752 mmHg 66%
07:00 +3°C° 0 mm 5 mps 752 mmHg 66%
08:00 +5°C° 0 mm 5 mps 752 mmHg 60%
09:00 +7°C° 0 mm 6 mps 752 mmHg 54%
10:00 +8°C° 0 mm 6 mps 752 mmHg 48%
11:00 +9°C° 0 mm 7 mps 752 mmHg 46%
12:00 +10°C° 0 mm 7 mps 752 mmHg 43%
13:00 +11°C° 0 mm 7 mps 752 mmHg 41%
14:00 +11°C° 0 mm 7 mps 752 mmHg 41%
15:00 +11°C° 0 mm 8 mps 751 mmHg 42%
16:00 +11°C° 0 mm 8 mps 751 mmHg 43%
17:00 +9°C° 0 mm 8 mps 752 mmHg 47%
18:00 +6°C° 0 mm 8 mps 753 mmHg 52%
19:00 +4°C° 0 mm 8 mps 754 mmHg 56%
20:00 +2°C° 0 mm 8 mps 754 mmHg 52%
21:00 +2°C° 0 mm 7 mps 754 mmHg 47%
22:00 0°C° 0 mm 7 mps 755 mmHg 43%
23:00 -1°C° 0 mm 7 mps 755 mmHg 48%

19 April, Monday

Time Temperature Precipitation Wind Pressure Humidity
00:00 -1°C° 0 mm 8 mps 756 mmHg 53%
01:00 -2°C° 0 mm 8 mps 756 mmHg 58%
02:00 -2°C° 0 mm 7 mps 757 mmHg 60%
03:00 -3°C° 0 mm 7 mps 758 mmHg 63%
04:00 -3°C° 0 mm 7 mps 759 mmHg 65%
05:00 -3°C° 0 mm 7 mps 759 mmHg 61%
06:00 -3°C° 0 mm 7 mps 760 mmHg 57%
07:00 -3°C° 0 mm 7 mps 761 mmHg 53%
08:00 -2°C° 0 mm 7 mps 761 mmHg 45%
09:00 -1°C° 0 mm 7 mps 761 mmHg 38%
10:00 0°C° 0 mm 7 mps 762 mmHg 31%
11:00 0°C° 0 mm 7 mps 762 mmHg 29%
12:00 +2°C° 0 mm 7 mps 762 mmHg 28%
13:00 +2°C° 0 mm 7 mps 762 mmHg 27%
14:00 +2°C° 0 mm 7 mps 762 mmHg 27%
15:00 +2°C° 0 mm 7 mps 762 mmHg 27%
16:00 +3°C° 0 mm 7 mps 763 mmHg 27%
17:00 +2°C° 0 mm 6 mps 763 mmHg 29%
18:00 +1°C° 0 mm 5 mps 763 mmHg 32%
19:00 +1°C° 0 mm 4 mps 764 mmHg 35%
20:00 0°C° 0 mm 4 mps 764 mmHg 39%
21:00 0°C° 0 mm 3 mps 764 mmHg 43%
22:00 -1°C° 0 mm 2 mps 764 mmHg 47%
23:00 -1°C° 0 mm 2 mps 765 mmHg 47%

20 April, Tuesday

Time Temperature Precipitation Wind Pressure Humidity
00:00 -1°C° 0 mm 2 mps 765 mmHg 47%
01:00 +1°C° 0 mm 1 mps 765 mmHg 47%
02:00 +1°C° 0 mm 1 mps 765 mmHg 46%
03:00 +1°C° 0 mm 1 mps 765 mmHg 46%
04:00 +1°C° 0 mm 1 mps 766 mmHg 45%
05:00 +1°C° 0 mm 1 mps 766 mmHg 43%
06:00 +2°C° 0 mm 1 mps 766 mmHg 41%
07:00 +3°C° 0 mm 1 mps 766 mmHg 39%
08:00 +4°C° 0 mm 1 mps 766 mmHg 36%
09:00 +4°C° 0 mm 2 mps 766 mmHg 34%
10:00 +5°C° 0 mm 2 mps 766 mmHg 31%
11:00 +6°C° 0 mm 2 mps 766 mmHg 30%
12:00 +6°C° 0 mm 2 mps 766 mmHg 29%
13:00 +7°C° 0 mm 2 mps 765 mmHg 29%
14:00 +8°C° 0 mm 2 mps 765 mmHg 29%
15:00 +8°C° 0 mm 2 mps 765 mmHg 29%
16:00 +8°C° 0 mm 2 mps 765 mmHg 28%
17:00 +8°C° 0 mm 2 mps 765 mmHg 32%
18:00 +8°C° 0 mm 1 mps 765 mmHg 36%
19:00 +8°C° 0 mm 1 mps 765 mmHg 40%
20:00 +7°C° 0 mm 1 mps 765 mmHg 42%
21:00 +6°C° 0 mm 1 mps 765 mmHg 44%
22:00 +4°C° 0 mm 0 mps 765 mmHg 45%
23:00 +4°C° 0 mm 0 mps 765 mmHg 46%
Show more